FW6261 Weather Reports


time (UTC)temp
C
wind
direction
speed
KPH
gust
KPH
rain 1hr
cm
rain 24hr
cm
rain mn
cm
humidity
%
barometer
mb
20260503230526 16 235 12.9 25.7 0.00 0.00 0.00 29 1010.2
20260503230038 16 225 9.7 19.3 0.00 0.00 0.00 29 1010.1
20260503225522 16 360 8.0 19.3 0.00 0.00 0.00 29 1010.1
20260503225022 16 360 8.0 20.9 0.00 0.00 0.00 29 1010.0
20260503224537 16 360 11.3 25.7 0.00 0.00 0.00 29 1010.0
20260503224022 16 360 14.5 25.7 0.00 0.00 0.00 29 1010.1
20260503223522 16 360 11.3 25.7 0.00 0.00 0.00 29 1010.1
20260503223037 16 360 9.7 29.0 0.00 0.00 0.00 29 1010.0
20260503222522 16 219 9.7 29.0 0.00 0.00 0.00 29 1010.1
20260503222022 16 252 8.0 20.9 0.00 0.00 0.00 29 1010.0
20260503221543 16 210 8.0 25.7 0.00 0.00 0.00 29 1010.0
20260503221022 16 224 11.3 25.7 0.00 0.00 0.00 28 1009.9
20260503220522 16 222 8.0 17.7 0.00 0.00 0.00 28 1010.0
20260503220041 16 255 8.0 27.4 0.00 0.00 0.00 29 1010.0
20260503215521 16 210 8.0 27.4 0.00 0.00 0.00 28 1010.0
20260503215021 16 250 14.5 27.4 0.00 0.00 0.00 28 1010.1
20260503214541 16 267 11.3 22.5 0.00 0.00 0.00 28 1010.1
20260503214022 16 222 9.7 24.1 0.00 0.00 0.00 29 1009.9
20260503213522 16 238 9.7 29.0 0.00 0.00 0.00 28 1010.1
20260503213037 16 296 11.3 29.0 0.00 0.00 0.00 29 1010.1
20260503212523 16 242 14.5 29.0 0.00 0.00 0.00 28 1010.0
20260503212023 16 230 16.1 27.4 0.00 0.00 0.00 29 1010.1
20260503211538 16 249 16.1 32.2 0.00 0.00 0.00 28 1010.0
20260503211022 16 293 12.9 32.2 0.00 0.00 0.00 28 1010.1
20260503210522 16 283 14.5 30.6 0.00 0.00 0.00 28 1010.1
20260503210043 16 259 11.3 24.1 0.00 0.00 0.00 29 1010.1
20260503205524 16 281 12.9 25.7 0.00 0.00 0.00 29 1010.0
20260503205022 16 248 12.9 30.6 0.00 0.00 0.00 29 1010.1
20260503204543 16 231 16.1 30.6 0.00 0.00 0.00 29 1010.1
20260503204022 16 261 8.0 29.0 0.00 0.00 0.00 29 1010.1
20260503203522 15 360 12.9 29.0 0.00 0.00 0.00 29 1010.1
20260503203049 15 360 14.5 29.0 0.00 0.00 0.00 30 1010.1
20260503202522 15 360 14.5 32.2 0.00 0.00 0.00 29 1010.1
20260503202021 15 360 16.1 32.2 0.00 0.00 0.00 29 1010.2
20260503201543 15 274 12.9 29.0 0.00 0.00 0.00 29 1010.1
20260503201059 15 249 14.5 30.6 0.00 0.00 0.00 28 1010.3
20260503200521 15 292 8.0 30.6 0.00 0.00 0.00 29 1010.3
20260503200038 15 274 14.5 30.6 0.00 0.00 0.00 28 1010.3
20260503195525 15 321 8.0 24.1 0.00 0.00 0.00 30 1010.2
20260503195021 15 228 11.3 25.7 0.00 0.00 0.00 30 1010.3
20260503194538 15 360 9.7 27.4 0.00 0.00 0.00 30 1010.4
20260503194022 15 360 8.0 27.4 0.00 0.00 0.00 30 1010.5
20260503193522 15 360 9.7 20.9 0.00 0.00 0.00 31 1010.5
20260503193046 15 271 6.4 25.7 0.00 0.00 0.00 30 1010.5
20260503192523 15 360 9.7 25.7 0.00 0.00 0.00 30 1010.5
20260503192022 15 218 16.1 25.7 0.00 0.00 0.00 29 1010.6
20260503191542 15 264 14.5 30.6 0.00 0.00 0.00 29 1010.8
20260503191022 15 280 14.5 30.6 0.00 0.00 0.00 30 1010.6
20260503190522 15 240 16.1 38.6 0.00 0.00 0.00 30 1010.6
20260503190045 15 229 14.5 38.6 0.00 0.00 0.00 30 1010.6
20260503185522 15 219 16.1 32.2 0.00 0.00 0.00 30 1010.6
20260503185022 15 274 14.5 33.8 0.00 0.00 0.00 30 1010.7
20260503184545 15 360 14.5 33.8 0.00 0.00 0.00 30 1010.7
20260503184024 15 221 8.0 24.1 0.00 0.00 0.00 31 1010.9
20260503183523 15 360 12.9 22.5 0.00 0.00 0.00 32 1011.0
20260503183040 15 360 11.3 22.5 0.00 0.00 0.00 31 1011.1
20260503182522 15 360 12.9 25.7 0.00 0.00 0.00 32 1011.1
20260503182024 14 360 12.9 25.7 0.00 0.00 0.00 32 1011.2
20260503181540 14 360 14.5 27.4 0.00 0.00 0.00 32 1011.1
20260503181022 14 360 14.5 33.8 0.00 0.00 0.00 32 1011.1
20260503180521 14 360 14.5 33.8 0.00 0.00 0.00 32 1011.0
20260503180045 14 360 9.7 24.1 0.00 0.00 0.00 33 1011.2
20260503175523 14 360 9.7 30.6 0.00 0.00 0.00 34 1011.3
20260503175022 13 360 8.0 30.6 0.00 0.00 0.00 34 1011.2
20260503174536 13 360 16.1 30.6 0.00 0.00 0.00 34 1011.3
20260503174022 13 360 9.7 27.4 0.00 0.00 0.00 36 1011.4
20260503173522 13 360 8.0 27.4 0.00 0.00 0.00 37 1011.4
20260503173049 12 360 14.5 25.7 0.00 0.00 0.00 37 1011.6
20260503172521 13 360 11.3 24.1 0.00 0.00 0.00 36 1011.6
20260503172021 12 360 14.5 24.1 0.00 0.00 0.00 37 1011.7
20260503171542 12 360 6.4 29.0 0.00 0.00 0.00 38 1011.6
20260503171022 12 360 11.3 29.0 0.00 0.00 0.00 37 1011.8
20260503170522 12 360 8.0 29.0 0.00 0.00 0.00 37 1011.9
20260503150522 10 360 16.1 25.7 0.00 0.00 0.00 44 1012.6
20260503131019 9 360 8.0 20.9 0.00 0.00 0.00 51 1012.4
20260503130523 9 360 6.4 20.9 0.00 0.00 0.00 52 1012.4
20260503110522 7 360 6.4 12.9 0.00 0.00 0.00 58 1011.9
20260503081543 8 360 3.2 8.0 0.00 0.00 0.00 52 1010.2
20260503081022 8 360 0.0 8.0 0.00 0.00 0.00 52 1010.2
20260503080522 8 360 3.2 8.0 0.00 0.00 0.00 52 1010.2
20260503072521 8 360 3.2 9.7 0.00 0.00 0.00 51 1010.1
20260503072021 8 360 1.6 8.0 0.00 0.00 0.00 51 1010.2
20260503071539 8 360 3.2 8.0 0.00 0.00 0.00 51 1010.1
20260503071021 9 360 3.2 6.4 0.00 0.00 0.00 51 1010.1
20260503070521 9 360 1.6 6.4 0.00 0.00 0.00 51 1010.0
20260503060107 10 360 0.0 4.8 0.00 0.00 0.00 48 1010.2
20260503055021 10 360 0.0 6.4 0.00 0.00 0.00 48 1010.4
20260503054539 10 0 1.6 9.7 0.00 0.00 0.00 48 1010.4
20260503054021 10 360 1.6 9.7 0.00 0.00 0.00 48 1010.4
20260503053521 10 360 3.2 9.7 0.00 0.00 0.00 48 1010.3
20260503053042 10 360 1.6 6.4 0.00 0.00 0.00 48 1010.3
20260503052521 10 0 1.6 6.4 0.00 0.00 0.00 48 1010.3
20260503052022 10 360 0.0 6.4 0.00 0.00 0.00 48 1010.4
20260503051541 10 360 1.6 8.0 0.00 0.00 0.00 48 1010.3
20260503051021 10 360 1.6 8.0 0.00 0.00 0.00 48 1010.6
20260503050521 10 0 1.6 8.0 0.00 0.00 0.00 48 1010.6
20260503050041 10 360 1.6 8.0 0.00 0.00 0.00 47 1010.7
20260503045522 10 360 1.6 8.0 0.00 0.00 0.00 47 1010.6
20260503045024 10 0 1.6 14.5 0.00 0.00 0.00 47 1010.5
20260503044541 10 360 3.2 14.5 0.00 0.00 0.00 47 1010.6
20260503044021 10 360 6.4 14.5 0.00 0.00 0.00 47 1010.6
20260503043523 10 360 3.2 14.5 0.00 0.00 0.00 47 1010.6
20260503043047 10 360 4.8 14.5 0.00 0.00 0.00 47 1010.7
20260503042526 10 360 4.8 14.5 0.00 0.00 0.00 48 1010.7
20260503042038 10 360 3.2 12.9 0.00 0.00 0.00 48 1010.7
20260503041538 10 360 3.2 9.7 0.00 0.00 0.00 48 1010.7
20260503041021 10 0 3.2 9.7 0.00 0.00 0.00 48 1010.8
20260503040521 10 360 3.2 6.4 0.00 0.00 0.00 48 1010.7
20260503040053 10 360 3.2 8.0 0.00 0.00 0.00 48 1010.9
20260503035521 10 360 3.2 8.0 0.00 0.00 0.00 47 1010.8
20260503035021 10 360 3.2 8.0 0.00 0.00 0.00 47 1010.8
20260503034544 10 360 3.2 6.4 0.00 0.00 0.00 47 1010.7
20260503034021 10 360 3.2 6.4 0.00 0.00 0.00 47 1010.8
20260503033520 10 360 1.6 6.4 0.00 0.00 0.00 47 1010.7
20260503033037 10 360 3.2 6.4 0.00 0.00 0.00 47 1010.7
20260503032521 10 360 1.6 6.4 0.00 0.00 0.00 46 1010.6
20260503032021 11 360 1.6 6.4 0.00 0.00 0.00 46 1010.6
20260503031537 11 360 1.6 6.4 0.00 0.00 0.00 46 1010.7
20260503031022 11 0 0.0 0.0 0.00 0.00 0.00 46 1010.8
20260503030521 11 0 0.0 0.0 0.00 0.00 0.00 45 1010.8
20260503030036 11 0 0.0 3.2 0.00 0.00 0.00 45 1010.9
20260503025522 11 0 0.0 4.8 0.00 0.00 0.00 45 1010.8
20260503025023 11 0 1.6 6.4 0.00 0.00 0.00 44 1010.8
20260503024543 11 360 0.0 6.4 0.00 0.00 0.00 44 1010.8
20260503024022 11 360 1.6 6.4 0.00 0.00 0.00 44 1010.8
20260503023522 11 360 1.6 8.0 0.00 0.00 0.00 43 1010.9
20260503023043 11 360 3.2 8.0 0.00 0.00 0.00 43 1010.8
20260503022521 12 360 3.2 6.4 0.00 0.00 0.00 43 1010.8
20260503022022 12 360 3.2 8.0 0.00 0.00 0.00 43 1010.7
20260503021550 12 360 3.2 8.0 0.00 0.00 0.00 43 1010.7
20260503021022 12 360 1.6 6.4 0.00 0.00 0.00 43 1010.7
20260503020522 12 360 3.2 8.0 0.00 0.00 0.00 43 1010.6
20260503020048 12 360 1.6 8.0 0.00 0.00 0.00 43 1010.7
20260503015521 12 360 3.2 8.0 0.00 0.00 0.00 42 1010.7
20260503015021 12 360 3.2 8.0 0.00 0.00 0.00 42 1010.7
20260503014537 12 360 3.2 8.0 0.00 0.00 0.00 42 1010.7
20260503014021 12 360 1.6 4.8 0.00 0.00 0.00 41 1010.7
20260503013521 12 360 1.6 6.4 0.00 0.00 0.00 41 1010.8
20260503013036 12 0 1.6 6.4 0.00 0.00 0.00 41 1010.8
20260503012521 12 360 1.6 6.4 0.00 0.00 0.00 41 1010.7
20260503012021 13 360 3.2 6.4 0.00 0.00 0.00 41 1010.7
20260503011536 13 360 1.6 6.4 0.00 0.00 0.00 41 1010.8
20260503011021 13 360 1.6 6.4 0.00 0.00 0.00 41 1010.6
20260503010521 13 360 1.6 6.4 0.00 0.00 0.00 41 1010.6
20260503010042 13 360 1.6 4.8 0.00 0.00 0.00 41 1010.4
20260503005523 13 360 1.6 4.8 0.00 0.00 0.00 40 1010.4
20260503005021 13 360 1.6 4.8 0.00 0.00 0.00 40 1010.4
20260503004550 13 0 0.0 4.8 0.00 0.00 0.00 40 1010.2
20260503004021 13 360 1.6 4.8 0.00 0.00 0.00 40 1010.1
20260503003520 13 360 3.2 4.8 0.00 0.00 0.00 39 1010.2
20260503003056 13 360 1.6 6.4 0.00 0.00 0.00 39 1010.1
20260503002521 13 360 1.6 6.4 0.00 0.00 0.00 39 1010.1
20260503002021 13 360 3.2 6.4 0.00 0.00 0.00 38 1010.0
20260503001542 13 360 1.6 8.0 0.00 0.00 0.00 38 1010.0
20260503001021 13 360 1.6 8.0 0.00 0.00 0.00 38 1010.0
20260503000521 13 360 3.2 9.7 0.00 0.00 0.00 38 1010.0
20260503000038 14 360 3.2 9.7 0.00 0.00 0.00 38 1009.9
20260502235521 14 360 3.2 8.0 0.00 0.00 0.00 38 1009.9
20260502235021 14 360 1.6 6.4 0.00 0.00 0.00 39 1009.9
20260502234544 14 360 1.6 8.0 0.00 0.00 0.00 38 1009.8
20260502234021 14 360 3.2 9.7 0.00 0.00 0.00 37 1009.8
20260502233522 14 360 3.2 12.9 0.00 0.00 0.00 37 1009.9
20260502233041 14 360 4.8 12.9 0.00 0.00 0.00 37 1009.9
20260502232520 14 360 3.2 9.7 0.00 0.00 0.00 37 1009.9
20260502232021 15 360 3.2 9.7 0.00 0.00 0.00 37 1010.0
20260502231541 15 360 1.6 9.7 0.00 0.00 0.00 37 1009.9
20260502231021 15 360 1.6 14.5 0.00 0.00 0.00 36 1009.8